User: anonymous   Login
Location: Cantarrana
(10.3575°N, 66.9340°W)
Time: 07:34:47
(UTC+00:00)
Language:

CZ-4B R/B - Orbit

View from above orbital plane
View from above orbital plane
View from above satellite
View from above satellite

Ground track
Ground track

The orbit data is extracted from the following two-line orbital elements,

1 27432U 02024C   22147.94074896  .00000049  00000-0  49197-4 0  9996
2 27432  99.0626 172.7578 0049919 335.8333  87.1383 14.14139958 33921
Epoch (UTC): 27 May 2022 22:34:40
Eccentricity: 0.0049919
inclination: 99.0626°
perigee height: 809 km
apogee height: 881 km
right ascension of ascending node: 172.7578°
argument of perigee: 335.8333°
revolutions per day: 14.14139958
mean anomaly at epoch: 87.1383°
orbit number at epoch: 3392

The dashed part of the orbit path shows where the satellite is in the earth's shadow,  

DLR